Time,TemperatureF,DewpointF,PressureIn,WindDirection,WindDirectionDegrees,WindSpeedMPH,WindSpeedGustMPH,Humidity,HourlyPrecipIn,Conditions,Clouds,dailyrainin,SoftwareType,DateUTC
2013-01-25 00:00:00,12.5,7.2,30.53,NNE,15,0.0,0.0,79,0.00,,OVC028,0.00,VWS V13.01,2013-01-25 05:00:00,
2013-01-25 00:02:00,12.4,7.1,30.53,NNE,15,0.0,0.0,79,0.00,,BKN035,0.00,VWS V13.01,2013-01-25 05:02:00,
2013-01-25 00:03:00,12.4,7.4,30.53,NNE,15,0.0,0.0,80,0.00,,BKN035,0.00,VWS V13.01,2013-01-25 05:03:00,
2013-01-25 00:08:00,12.3,7.3,30.53,NNE,15,0.0,0.0,80,0.00,,BKN035,0.00,VWS V13.01,2013-01-25 05:08:00,
2013-01-25 00:13:00,12.3,7.6,30.53,NNE,15,0.0,0.0,81,0.00,,BKN035,0.00,VWS V13.01,2013-01-25 05:13:00,
2013-01-25 00:18:00,12.3,7.6,30.52,NNE,15,0.0,0.0,81,0.00,,BKN035,0.00,VWS V13.01,2013-01-25 05:18:00,
2013-01-25 00:23:00,12.3,7.6,30.52,NNE,15,0.0,0.0,81,0.00,,BKN035,0.00,VWS V13.01,2013-01-25 05:23:00,
2013-01-25 00:28:00,12.3,7.6,30.52,NNE,15,0.0,1.0,81,0.00,,BKN035,0.00,VWS V13.01,2013-01-25 05:28:00,
2013-01-25 00:33:00,12.5,8.1,30.52,NNE,15,0.0,0.0,82,0.00,,BKN035,0.00,VWS V13.01,2013-01-25 05:33:00,
2013-01-25 00:38:00,12.6,8.2,30.52,NNE,15,0.0,0.0,82,0.00,,BKN035,0.00,VWS V13.01,2013-01-25 05:38:00,
2013-01-25 00:43:00,12.7,8.3,30.52,NNE,15,0.0,0.0,82,0.00,,BKN035,0.00,VWS V13.01,2013-01-25 05:43:00,
2013-01-25 00:48:00,12.9,8.4,30.52,NNE,15,0.0,1.0,82,0.00,,BKN035,0.00,VWS V13.01,2013-01-25 05:48:00,
2013-01-25 00:53:00,12.7,8.0,30.52,SSW,205,0.0,4.0,81,0.00,,BKN035,0.00,VWS V13.01,2013-01-25 05:53:00,
2013-01-25 00:58:00,12.5,7.8,30.51,SSW,205,2.0,4.0,81,0.00,,BKN035,0.00,VWS V13.01,2013-01-25 05:58:00,
2013-01-25 01:03:00,12.3,7.6,30.51,SE,142,0.0,1.0,81,0.00,,OVC031,0.00,VWS V13.01,2013-01-25 06:03:00,
2013-01-25 01:08:00,12.2,7.5,30.51,SE,142,0.0,1.0,81,0.00,,OVC031,0.00,VWS V13.01,2013-01-25 06:08:00,
2013-01-25 01:13:00,12.1,7.4,30.51,SE,142,0.0,1.0,81,0.00,,OVC031,0.00,VWS V13.01,2013-01-25 06:13:00,
2013-01-25 01:18:00,12.0,7.3,30.50,SE,142,1.0,1.0,81,0.00,,OVC031,0.00,VWS V13.01,2013-01-25 06:18:00,
2013-01-25 01:23:00,12.0,7.6,30.50,SE,142,0.0,1.0,82,0.00,,OVC031,0.00,VWS V13.01,2013-01-25 06:23:00,
2013-01-25 01:28:00,11.9,7.5,30.50,South,190,0.0,1.0,82,0.00,,OVC031,0.00,VWS V13.01,2013-01-25 06:28:00,
2013-01-25 01:33:00,11.9,7.5,30.50,South,189,0.0,2.0,82,0.00,,OVC031,0.00,VWS V13.01,2013-01-25 06:33:00,
2013-01-25 01:38:00,11.8,7.4,30.51,South,189,0.0,2.0,82,0.00,,OVC031,0.00,VWS V13.01,2013-01-25 06:38:00,
2013-01-25 01:43:00,11.7,7.6,30.51,South,189,0.0,2.0,83,0.00,,OVC031,0.00,VWS V13.01,2013-01-25 06:43:00,
2013-01-25 01:48:00,11.7,7.6,30.51,South,189,0.0,2.0,83,0.00,,OVC031,0.00,VWS V13.01,2013-01-25 06:48:00,
2013-01-25 01:53:00,11.7,7.6,30.50,South,189,0.0,2.0,83,0.00,,OVC031,0.00,VWS V13.01,2013-01-25 06:53:00,
2013-01-25 01:58:00,11.6,7.4,30.51,South,189,0.0,2.0,83,0.00,,OVC031,0.00,VWS V13.01,2013-01-25 06:58:00,
2013-01-25 02:03:00,11.6,7.4,30.51,SE,134,0.0,2.0,83,0.00,,OVC035,0.00,VWS V13.01,2013-01-25 07:03:00,
2013-01-25 02:08:00,11.6,7.4,30.50,SE,134,0.0,2.0,83,0.00,,OVC035,0.00,VWS V13.01,2013-01-25 07:08:00,
2013-01-25 02:13:00,11.5,7.3,30.50,SE,134,0.0,2.0,83,0.00,,OVC035,0.00,VWS V13.01,2013-01-25 07:13:00,
2013-01-25 02:18:00,11.5,7.3,30.50,SE,134,0.0,2.0,83,0.00,,OVC035,0.00,VWS V13.01,2013-01-25 07:18:00,
2013-01-25 02:23:00,11.6,7.4,30.50,SE,134,0.0,2.0,83,0.00,,OVC035,0.00,VWS V13.01,2013-01-25 07:23:00,
2013-01-25 02:29:00,11.6,7.4,30.50,SE,134,0.0,2.0,83,0.00,,OVC035,0.00,VWS V13.01,2013-01-25 07:29:00,
2013-01-25 02:34:00,11.6,7.4,30.50,SE,134,0.0,1.0,83,0.00,,OVC035,0.00,VWS V13.01,2013-01-25 07:34:00,
2013-01-25 02:39:00,11.6,7.4,30.50,SE,134,0.0,1.0,83,0.00,,OVC035,0.00,VWS V13.01,2013-01-25 07:39:00,
2013-01-25 02:44:00,11.6,7.4,30.50,SE,134,0.0,1.0,83,0.00,,OVC035,0.00,VWS V13.01,2013-01-25 07:44:00,
2013-01-25 02:49:00,11.6,7.4,30.50,SE,134,0.0,1.0,83,0.00,,OVC035,0.00,VWS V13.01,2013-01-25 07:49:00,
2013-01-25 02:54:00,11.5,7.3,30.49,SE,134,0.0,1.0,83,0.00,,OVC035,0.00,VWS V13.01,2013-01-25 07:54:00,
2013-01-25 02:59:00,11.5,7.3,30.49,SE,134,0.0,1.0,83,0.00,,OVC035,0.00,VWS V13.01,2013-01-25 07:59:00,
2013-01-25 03:04:00,11.5,7.3,30.49,SE,134,0.0,0.0,83,0.00,,OVC037,0.00,VWS V13.01,2013-01-25 08:04:00,
2013-01-25 03:09:00,11.5,7.3,30.49,SE,134,0.0,1.0,83,0.00,,OVC037,0.00,VWS V13.01,2013-01-25 08:09:00,
2013-01-25 03:14:00,11.4,7.2,30.48,SE,134,0.0,1.0,83,0.00,,OVC037,0.00,VWS V13.01,2013-01-25 08:14:00,
2013-01-25 03:19:00,11.4,7.2,30.48,SE,134,0.0,1.0,83,0.00,,OVC037,0.00,VWS V13.01,2013-01-25 08:19:00,
2013-01-25 03:24:00,11.4,7.2,30.48,SE,134,0.0,1.0,83,0.00,,OVC037,0.00,VWS V13.01,2013-01-25 08:24:00,
2013-01-25 03:29:00,11.4,7.2,30.48,SE,134,0.0,1.0,83,0.00,,OVC037,0.00,VWS V13.01,2013-01-25 08:29:00,
2013-01-25 03:34:00,11.4,7.5,30.48,SE,134,0.0,0.0,84,0.00,,OVC037,0.00,VWS V13.01,2013-01-25 08:34:00,
2013-01-25 03:39:00,11.4,7.5,30.48,SE,134,0.0,1.0,84,0.00,,OVC037,0.00,VWS V13.01,2013-01-25 08:39:00,
2013-01-25 03:44:00,11.5,7.6,30.47,SE,134,0.0,1.0,84,0.00,,OVC037,0.00,VWS V13.01,2013-01-25 08:44:00,
2013-01-25 03:49:00,11.5,7.3,30.47,SE,134,0.0,1.0,83,0.00,,OVC037,0.00,VWS V13.01,2013-01-25 08:49:00,
2013-01-25 03:54:00,11.6,7.4,30.47,SE,134,0.0,1.0,83,0.00,,OVC037,0.00,VWS V13.01,2013-01-25 08:54:00,
2013-01-25 03:59:00,11.6,7.4,30.46,SE,134,0.0,1.0,83,0.00,,OVC037,0.00,VWS V13.01,2013-01-25 08:59:00,
2013-01-25 04:04:00,11.6,7.4,30.45,SE,134,0.0,1.0,83,0.00,,OVC037,0.00,VWS V13.01,2013-01-25 09:04:00,
2013-01-25 04:09:00,11.6,7.4,30.45,SE,134,0.0,1.0,83,0.00,,OVC037,0.00,VWS V13.01,2013-01-25 09:09:00,
2013-01-25 04:14:00,11.6,7.4,30.44,SE,142,0.0,1.0,83,0.00,,OVC037,0.00,VWS V13.01,2013-01-25 09:14:00,
2013-01-25 04:19:00,11.6,7.4,30.44,SE,143,0.0,3.0,83,0.00,,OVC037,0.00,VWS V13.01,2013-01-25 09:19:00,
2013-01-25 04:24:00,11.6,7.4,30.43,SE,143,0.0,3.0,83,0.00,,OVC037,0.00,VWS V13.01,2013-01-25 09:24:00,
2013-01-25 04:29:00,11.6,7.4,30.44,SSE,152,0.0,3.0,83,0.00,,OVC037,0.00,VWS V13.01,2013-01-25 09:29:00,
2013-01-25 04:34:00,11.7,7.6,30.43,SSE,152,0.0,2.0,83,0.00,,OVC037,0.00,VWS V13.01,2013-01-25 09:34:00,
2013-01-25 04:39:00,11.6,7.4,30.43,SSE,152,1.0,2.0,83,0.00,,OVC037,0.00,VWS V13.01,2013-01-25 09:39:00,
2013-01-25 04:44:00,11.7,7.6,30.43,SSE,152,0.0,2.0,83,0.00,,OVC037,0.00,VWS V13.01,2013-01-25 09:44:00,
2013-01-25 04:49:00,11.7,7.6,30.43,SSE,152,0.0,2.0,83,0.00,,OVC037,0.00,VWS V13.01,2013-01-25 09:49:00,
2013-01-25 04:54:00,11.6,7.4,30.43,SSE,152,0.0,2.0,83,0.00,,OVC037,0.00,VWS V13.01,2013-01-25 09:54:00,
2013-01-25 04:59:00,11.6,7.4,30.43,SSE,152,0.0,2.0,83,0.00,,OVC037,0.00,VWS V13.01,2013-01-25 09:59:00,
2013-01-25 05:04:00,11.5,7.3,30.43,SSE,152,0.0,1.0,83,0.00,,OVC033,0.00,VWS V13.01,2013-01-25 10:04:00,
2013-01-25 05:09:00,11.4,7.0,30.43,SSE,152,0.0,2.0,82,0.00,,OVC033,0.00,VWS V13.01,2013-01-25 10:09:00,
2013-01-25 05:14:00,11.4,7.0,30.43,SSE,152,0.0,2.0,82,0.00,,OVC033,0.00,VWS V13.01,2013-01-25 10:14:00,
2013-01-25 05:19:00,11.3,6.9,30.43,SSE,150,0.0,2.0,82,0.00,,OVC033,0.00,VWS V13.01,2013-01-25 10:19:00,
2013-01-25 05:24:00,11.3,6.9,30.42,SSE,148,0.0,2.0,82,0.00,,OVC033,0.00,VWS V13.01,2013-01-25 10:24:00,
2013-01-25 05:29:00,11.3,6.9,30.42,SSE,148,0.0,2.0,82,0.00,,OVC033,0.00,VWS V13.01,2013-01-25 10:29:00,
2013-01-25 05:34:00,11.3,6.9,30.42,SSE,148,0.0,1.0,82,0.00,,OVC033,0.00,VWS V13.01,2013-01-25 10:34:00,
2013-01-25 05:39:00,11.3,6.9,30.42,SSE,148,0.0,1.0,82,0.00,,OVC033,0.00,VWS V13.01,2013-01-25 10:39:00,
2013-01-25 05:44:00,11.3,7.2,30.42,SSE,148,0.0,1.0,83,0.00,,OVC033,0.00,VWS V13.01,2013-01-25 10:44:00,
2013-01-25 05:49:00,11.2,7.1,30.42,SSE,148,0.0,1.0,83,0.00,,OVC033,0.00,VWS V13.01,2013-01-25 10:49:00,
2013-01-25 05:54:00,11.2,6.8,30.41,SSE,148,0.0,1.0,82,0.00,,OVC033,0.00,VWS V13.01,2013-01-25 10:54:00,
2013-01-25 05:59:00,11.2,6.8,30.41,SSE,148,0.0,2.0,82,0.00,,OVC033,0.00,VWS V13.01,2013-01-25 10:59:00,
2013-01-25 06:04:00,11.2,6.8,30.41,SSE,148,0.0,2.0,82,0.00,,BKN120,0.00,VWS V13.01,2013-01-25 11:04:00,
2013-01-25 06:09:00,11.2,7.1,30.41,SSE,148,0.0,2.0,83,0.00,,BKN120,0.00,VWS V13.01,2013-01-25 11:09:00,
2013-01-25 06:14:00,11.3,7.2,30.40,SSE,148,0.0,2.0,83,0.00,,BKN120,0.00,VWS V13.01,2013-01-25 11:14:00,
2013-01-25 06:19:00,11.4,7.2,30.40,SSE,148,0.0,2.0,83,0.00,,BKN120,0.00,VWS V13.01,2013-01-25 11:19:00,
2013-01-25 06:25:00,11.4,7.2,30.40,SSE,148,0.0,2.0,83,0.00,,BKN120,0.00,VWS V13.01,2013-01-25 11:25:00,
2013-01-25 06:30:00,11.5,7.1,30.40,SSE,148,0.0,2.0,82,0.00,,BKN120,0.00,VWS V13.01,2013-01-25 11:30:00,
2013-01-25 06:35:00,11.6,7.2,30.40,SSE,148,0.0,1.0,82,0.00,,BKN120,0.00,VWS V13.01,2013-01-25 11:35:00,
2013-01-25 06:40:00,11.6,7.2,30.39,SSE,148,0.0,1.0,82,0.00,,BKN120,0.00,VWS V13.01,2013-01-25 11:40:00,
2013-01-25 06:45:00,11.6,7.2,30.39,SSE,148,0.0,2.0,82,0.00,,BKN120,0.00,VWS V13.01,2013-01-25 11:45:00,
2013-01-25 06:50:00,11.7,7.3,30.39,SSE,148,0.0,2.0,82,0.00,,BKN120,0.00,VWS V13.01,2013-01-25 11:50:00,
2013-01-25 06:55:00,11.7,7.3,30.38,SSE,148,0.0,2.0,82,0.00,,BKN120,0.00,VWS V13.01,2013-01-25 11:55:00,
2013-01-25 07:00:00,11.7,7.3,30.38,SSE,148,0.0,2.0,82,0.00,,BKN120,0.00,VWS V13.01,2013-01-25 12:00:00,
2013-01-25 07:05:00,11.7,7.3,30.38,SSE,148,0.0,2.0,82,0.00,,OVC110,0.00,VWS V13.01,2013-01-25 12:05:00,
2013-01-25 07:10:00,11.7,7.3,30.37,SSE,148,0.0,2.0,82,0.00,,OVC110,0.00,VWS V13.01,2013-01-25 12:10:00,
2013-01-25 07:15:00,11.7,7.3,30.36,SSE,148,0.0,2.0,82,0.00,,OVC110,0.00,VWS V13.01,2013-01-25 12:15:00,
2013-01-25 07:20:00,11.7,7.3,30.36,SSE,148,0.0,2.0,82,0.00,,OVC110,0.00,VWS V13.01,2013-01-25 12:20:00,
2013-01-25 07:25:00,11.8,7.4,30.35,SE,142,0.0,2.0,82,0.00,,OVC110,0.00,VWS V13.01,2013-01-25 12:25:00,
2013-01-25 07:30:00,11.9,7.5,30.35,ESE,118,0.0,2.0,82,0.00,,OVC110,0.00,VWS V13.01,2013-01-25 12:30:00,
2013-01-25 07:35:00,11.9,7.5,30.35,SSE,163,0.0,2.0,82,0.00,,OVC110,0.00,VWS V13.01,2013-01-25 12:35:00,
2013-01-25 07:40:00,12.1,7.7,30.35,South,178,0.0,5.0,82,0.00,,OVC110,0.00,VWS V13.01,2013-01-25 12:40:00,
2013-01-25 07:45:00,12.2,7.8,30.35,South,178,0.0,5.0,82,0.00,,OVC110,0.00,VWS V13.01,2013-01-25 12:45:00,
2013-01-25 07:50:00,12.3,7.9,30.34,South,178,0.0,5.0,82,0.00,,OVC110,0.00,VWS V13.01,2013-01-25 12:50:00,
2013-01-25 07:55:00,12.3,7.9,30.34,South,178,0.0,5.0,82,0.00,,OVC110,0.00,VWS V13.01,2013-01-25 12:55:00,
2013-01-25 08:00:00,12.5,8.1,30.33,SE,133,0.0,5.0,82,0.00,,OVC110,0.00,VWS V13.01,2013-01-25 13:00:00,
2013-01-25 08:05:00,12.6,8.2,30.33,NE,42,0.0,2.0,82,0.00,,OVC090,0.00,VWS V13.01,2013-01-25 13:05:00,
2013-01-25 08:10:00,12.7,8.0,30.33,NE,44,0.0,2.0,81,0.00,,OVC090,0.00,VWS V13.01,2013-01-25 13:10:00,
2013-01-25 08:15:00,12.8,8.1,30.33,South,186,0.0,2.0,81,0.00,,OVC090,0.00,VWS V13.01,2013-01-25 13:15:00,
2013-01-25 08:20:00,12.9,8.2,30.32,South,186,0.0,2.0,81,0.00,,OVC090,0.00,VWS V13.01,2013-01-25 13:20:00,
2013-01-25 08:25:00,13.0,8.3,30.32,SE,144,0.0,3.0,81,0.00,,OVC090,0.00,VWS V13.01,2013-01-25 13:25:00,
2013-01-25 08:30:00,13.1,8.4,30.32,SSE,161,0.0,3.0,81,0.00,,OVC090,0.00,VWS V13.01,2013-01-25 13:30:00,
2013-01-25 08:35:00,13.2,8.2,30.31,SE,137,0.0,2.0,80,0.00,,OVC090,0.00,VWS V13.01,2013-01-25 13:35:00,
2013-01-25 08:40:00,13.2,8.2,30.31,SE,142,1.0,6.0,80,0.00,,OVC090,0.00,VWS V13.01,2013-01-25 13:40:00,
2013-01-25 08:45:00,13.2,7.9,30.31,SSE,158,0.0,6.0,79,0.00,,OVC090,0.00,VWS V13.01,2013-01-25 13:45:00,
2013-01-25 08:50:00,13.3,8.0,30.31,South,169,1.0,6.0,79,0.00,,OVC090,0.00,VWS V13.01,2013-01-25 13:50:00,
2013-01-25 08:55:00,13.5,8.2,30.30,South,186,0.0,6.0,79,0.00,,OVC090,0.00,VWS V13.01,2013-01-25 13:55:00,
2013-01-25 09:00:00,13.5,8.2,30.30,South,171,0.0,0.0,79,0.00,,OVC090,0.00,VWS V13.01,2013-01-25 14:00:00,
2013-01-25 09:05:00,13.6,8.0,30.30,South,171,0.0,2.0,78,0.00,,OVC085,0.00,VWS V13.01,2013-01-25 14:05:00,
2013-01-25 09:10:00,13.7,8.1,30.30,South,180,0.0,2.0,78,0.00,,OVC085,0.00,VWS V13.01,2013-01-25 14:10:00,
2013-01-25 09:15:00,13.9,8.3,30.30,SE,144,1.0,3.0,78,0.00,,OVC085,0.00,VWS V13.01,2013-01-25 14:15:00,
2013-01-25 09:20:00,14.0,8.4,30.30,ESE,107,1.0,3.0,78,0.00,,OVC085,0.00,VWS V13.01,2013-01-25 14:20:00,
2013-01-25 09:25:00,14.1,8.5,30.30,ESE,109,0.0,3.0,78,0.00,,OVC085,0.00,VWS V13.01,2013-01-25 14:25:00,
2013-01-25 09:30:00,14.1,8.2,30.29,ESE,115,0.0,0.0,77,0.00,,OVC085,0.00,VWS V13.01,2013-01-25 14:30:00,
2013-01-25 09:35:00,14.3,8.4,30.29,ESE,115,0.0,1.0,77,0.00,,OVC085,0.00,VWS V13.01,2013-01-25 14:35:00,
2013-01-25 09:40:00,14.4,8.5,30.29,ESE,115,0.0,1.0,77,0.00,,OVC085,0.00,VWS V13.01,2013-01-25 14:40:00,
2013-01-25 09:45:00,14.6,8.7,30.29,SSW,193,0.0,3.0,77,0.00,,OVC085,0.00,VWS V13.01,2013-01-25 14:45:00,
2013-01-25 09:50:00,14.8,8.9,30.28,SE,129,0.0,3.0,77,0.00,,OVC085,0.00,VWS V13.01,2013-01-25 14:50:00,
2013-01-25 09:55:00,15.0,8.8,30.28,ENE,63,1.0,3.0,76,0.00,,OVC085,0.00,VWS V13.01,2013-01-25 14:55:00,
2013-01-25 10:00:00,15.1,8.9,30.28,SSE,151,0.0,0.0,76,0.00,,OVC085,0.00,VWS V13.01,2013-01-25 15:00:00,
2013-01-25 10:05:00,15.2,9.0,30.28,SE,132,0.0,1.0,76,0.00,,OVC070,0.00,VWS V13.01,2013-01-25 15:05:00,
2013-01-25 10:10:00,15.3,8.8,30.27,East,84,0.0,3.0,75,0.00,,OVC070,0.00,VWS V13.01,2013-01-25 15:10:00,
2013-01-25 10:15:00,15.4,8.9,30.27,SE,131,0.0,3.0,75,0.00,,OVC070,0.00,VWS V13.01,2013-01-25 15:15:00,
2013-01-25 10:20:00,15.5,9.0,30.26,South,171,0.0,6.0,75,0.00,,OVC070,0.00,VWS V13.01,2013-01-25 15:20:00,
2013-01-25 10:25:00,15.7,9.2,30.26,SE,126,0.0,6.0,75,0.00,,OVC070,0.00,VWS V13.01,2013-01-25 15:25:00,
2013-01-25 10:30:00,15.8,9.3,30.26,South,172,0.0,1.0,75,0.00,,OVC070,0.00,VWS V13.01,2013-01-25 15:30:00,
2013-01-25 10:35:00,15.9,9.1,30.26,SE,136,0.0,2.0,74,0.00,,OVC070,0.00,VWS V13.01,2013-01-25 15:35:00,
2013-01-25 10:40:00,15.9,9.1,30.26,SE,132,0.0,2.0,74,0.00,,OVC070,0.00,VWS V13.01,2013-01-25 15:40:00,
2013-01-25 10:45:00,15.9,9.1,30.26,ESE,102,0.0,2.0,74,0.00,,OVC070,0.00,VWS V13.01,2013-01-25 15:45:00,
2013-01-25 10:50:00,16.0,9.2,30.26,East,101,0.0,2.0,74,0.00,,OVC070,0.00,VWS V13.01,2013-01-25 15:50:00,
2013-01-25 10:55:00,16.0,9.2,30.26,SSE,151,1.0,2.0,74,0.00,,OVC070,0.00,VWS V13.01,2013-01-25 15:55:00,
2013-01-25 11:00:00,16.0,9.2,30.26,SE,135,0.0,1.0,74,0.00,,OVC070,0.00,VWS V13.01,2013-01-25 16:00:00,
2013-01-25 11:06:00,16.1,9.3,30.25,SSE,148,0.0,2.0,74,0.00,,OVC050,0.00,VWS V13.01,2013-01-25 16:06:00,
2013-01-25 11:11:00,16.1,9.6,30.25,SE,130,0.0,3.0,75,0.00,,OVC050,0.00,VWS V13.01,2013-01-25 16:11:00,
2013-01-25 11:16:00,16.0,9.5,30.25,SE,126,2.0,6.0,75,0.00,,OVC050,0.00,VWS V13.01,2013-01-25 16:16:00,
2013-01-25 11:21:00,15.9,9.7,30.25,SE,128,0.0,6.0,76,0.00,,OVC050,0.00,VWS V13.01,2013-01-25 16:21:00,
2013-01-25 11:26:00,15.9,10.0,30.24,SSE,164,1.0,6.0,77,0.00,,OVC050,0.00,VWS V13.01,2013-01-25 16:26:00,
2013-01-25 11:31:00,15.8,10.2,30.24,ESE,103,0.0,0.0,78,0.00,,OVC050,0.00,VWS V13.01,2013-01-25 16:31:00,
2013-01-25 11:36:00,15.9,10.6,30.23,South,171,1.0,3.0,79,0.00,,OVC050,0.00,VWS V13.01,2013-01-25 16:36:00,
2013-01-25 11:41:00,15.9,10.6,30.23,WSW,237,0.0,3.0,79,0.00,,OVC050,0.00,VWS V13.01,2013-01-25 16:41:00,
2013-01-25 11:46:00,15.7,10.6,30.23,ESE,104,0.0,5.0,80,0.00,,OVC050,0.00,VWS V13.01,2013-01-25 16:46:00,
2013-01-25 11:51:00,15.8,10.7,30.22,ESE,112,0.0,5.0,80,0.00,,OVC050,0.00,VWS V13.01,2013-01-25 16:51:00,
2013-01-25 11:56:00,15.9,11.1,30.22,ESE,112,0.0,5.0,81,0.00,,OVC050,0.00,VWS V13.01,2013-01-25 16:56:00,
2013-01-25 12:01:00,16.2,11.4,30.22,ESE,112,0.0,1.0,81,0.00,,OVC050,0.00,VWS V13.01,2013-01-25 17:01:00,
2013-01-25 12:06:00,16.3,11.5,30.22,South,173,0.0,3.0,81,0.00,,OVC050,0.00,VWS V13.01,2013-01-25 17:06:00,
2013-01-25 12:11:00,16.3,11.5,30.22,ESE,111,0.0,3.0,81,0.00,,OVC050,0.00,VWS V13.01,2013-01-25 17:11:00,
2013-01-25 12:16:00,16.4,11.6,30.21,ESE,111,0.0,3.0,81,0.00,,OVC050,0.00,VWS V13.01,2013-01-25 17:16:00,
2013-01-25 12:21:00,16.5,12.0,30.20,ESE,113,2.0,3.0,82,0.00,,OVC050,0.00,VWS V13.01,2013-01-25 17:21:00,
2013-01-25 12:26:00,16.3,11.5,30.20,ESE,115,0.0,3.0,81,0.00,,OVC050,0.00,VWS V13.01,2013-01-25 17:26:00,
2013-01-25 12:31:00,16.3,11.8,30.20,ESE,114,0.0,1.0,82,0.00,,OVC050,0.00,VWS V13.01,2013-01-25 17:31:00,
2013-01-25 12:36:00,16.3,11.8,30.19,ESE,114,0.0,1.0,82,0.00,,OVC050,0.00,VWS V13.01,2013-01-25 17:36:00,
2013-01-25 12:41:00,16.5,12.2,30.18,ESE,114,0.0,2.0,83,0.00,,OVC050,0.00,VWS V13.01,2013-01-25 17:41:00,
2013-01-25 12:46:00,16.6,12.4,30.18,ESE,114,0.0,2.0,83,0.00,,OVC050,0.00,VWS V13.01,2013-01-25 17:46:00,
2013-01-25 12:51:00,16.6,12.4,30.17,ESE,114,0.0,2.0,83,0.00,,OVC050,0.00,VWS V13.01,2013-01-25 17:51:00,
2013-01-25 12:56:00,16.7,12.4,30.17,ESE,114,0.0,2.0,83,0.00,,OVC050,0.00,VWS V13.01,2013-01-25 17:56:00,
2013-01-25 13:01:00,16.7,12.4,30.17,ESE,114,0.0,2.0,83,0.00,,OVC050,0.00,VWS V13.01,2013-01-25 18:01:00,
2013-01-25 13:06:00,16.6,12.4,30.16,ESE,114,0.0,2.0,83,0.00,,OVC050,0.00,VWS V13.01,2013-01-25 18:06:00,
2013-01-25 13:11:00,16.6,12.4,30.16,ESE,114,0.0,2.0,83,0.00,,OVC050,0.00,VWS V13.01,2013-01-25 18:11:00,
2013-01-25 13:16:00,16.6,12.4,30.15,ESE,123,1.0,2.0,83,0.00,,OVC050,0.00,VWS V13.01,2013-01-25 18:16:00,
2013-01-25 13:21:00,16.5,12.2,30.14,SE,126,0.0,2.0,83,0.00,,OVC050,0.00,VWS V13.01,2013-01-25 18:21:00,
2013-01-25 13:27:00,16.6,12.4,30.14,SE,126,0.0,2.0,83,0.00,,OVC050,0.00,VWS V13.01,2013-01-25 18:27:00,
2013-01-25 13:32:00,16.5,12.2,30.14,SE,126,1.0,1.0,83,0.00,,OVC050,0.00,VWS V13.01,2013-01-25 18:32:00,
2013-01-25 13:37:00,16.3,12.1,30.13,East,82,0.0,2.0,83,0.00,,OVC050,0.00,VWS V13.01,2013-01-25 18:37:00,
2013-01-25 13:42:00,16.3,12.1,30.13,East,84,0.0,2.0,83,0.00,,OVC050,0.00,VWS V13.01,2013-01-25 18:42:00,
2013-01-25 13:47:00,16.4,12.1,30.13,ESE,119,0.0,2.0,83,0.00,,OVC050,0.00,VWS V13.01,2013-01-25 18:47:00,
2013-01-25 13:52:00,16.5,12.2,30.12,ESE,121,0.0,2.0,83,0.00,,OVC050,0.00,VWS V13.01,2013-01-25 18:52:00,
2013-01-25 13:57:00,16.6,12.4,30.12,ESE,121,1.0,2.0,83,0.00,,OVC050,0.00,VWS V13.01,2013-01-25 18:57:00,
2013-01-25 14:02:00,16.7,12.4,30.12,South,180,0.0,3.0,83,0.00,,OVC050,0.00,VWS V13.01,2013-01-25 19:02:00,
2013-01-25 14:07:00,16.9,12.9,30.12,South,180,0.0,3.0,84,0.00,,OVC050,0.00,VWS V13.01,2013-01-25 19:07:00,
2013-01-25 14:12:00,17.1,12.8,30.11,East,88,1.0,3.0,83,0.00,,OVC050,0.00,VWS V13.01,2013-01-25 19:12:00,
2013-01-25 14:17:00,17.2,12.9,30.11,SE,132,0.0,3.0,83,0.00,,OVC050,0.00,VWS V13.01,2013-01-25 19:17:00,
2013-01-25 14:22:00,17.4,13.1,30.11,SE,130,0.0,3.0,83,0.00,,OVC050,0.00,VWS V13.01,2013-01-25 19:22:00,
2013-01-25 14:27:00,17.5,13.2,30.11,SE,145,0.0,3.0,83,0.00,,OVC050,0.00,VWS V13.01,2013-01-25 19:27:00,
2013-01-25 14:32:00,17.7,13.4,30.10,SSE,153,0.0,2.0,83,0.00,,OVC050,0.00,VWS V13.01,2013-01-25 19:32:00,
2013-01-25 14:37:00,17.9,13.4,30.10,SSW,199,2.0,4.0,82,0.00,,OVC050,0.00,VWS V13.01,2013-01-25 19:37:00,
2013-01-25 14:42:00,18.1,13.5,30.11,SE,125,0.0,4.0,82,0.00,,OVC050,0.00,VWS V13.01,2013-01-25 19:42:00,
2013-01-25 14:47:00,18.1,13.3,30.10,SE,124,1.0,4.0,81,0.00,,,0.00,VWS V13.01,2013-01-25 19:47:00,
2013-01-25 14:52:00,18.1,13.3,30.10,SE,146,3.0,4.0,81,0.00,,,0.00,VWS V13.01,2013-01-25 19:52:00,
2013-01-25 14:57:00,18.1,13.3,30.09,SSE,159,0.0,4.0,81,0.00,,,0.00,VWS V13.01,2013-01-25 19:57:00,
2013-01-25 15:02:00,18.1,13.3,30.09,SSE,159,0.0,1.0,81,0.00,,,0.00,VWS V13.01,2013-01-25 20:02:00,
2013-01-25 15:07:00,18.3,13.5,30.09,SE,140,0.0,2.0,81,0.00,,,0.00,VWS V13.01,2013-01-25 20:07:00,
2013-01-25 15:12:00,18.4,13.3,30.08,SSW,205,0.0,3.0,80,0.00,,,0.00,VWS V13.01,2013-01-25 20:12:00,
2013-01-25 15:17:00,18.5,13.1,30.08,ESE,115,0.0,3.0,79,0.00,,,0.00,VWS V13.01,2013-01-25 20:17:00,
2013-01-25 15:24:00,18.6,13.2,30.09,ESE,115,1.0,3.0,79,0.00,,,0.00,VWS V13.01,2013-01-25 20:24:00,
2013-01-25 15:29:00,18.6,12.9,30.08,SE,130,0.0,3.0,78,0.00,,,0.00,VWS V13.01,2013-01-25 20:29:00,
2013-01-25 15:34:00,18.7,13.3,30.08,SE,130,0.0,0.0,79,0.00,,,0.00,VWS V13.01,2013-01-25 20:34:00,
2013-01-25 15:39:00,18.8,13.1,30.08,SE,130,0.0,2.0,78,0.00,,,0.00,VWS V13.01,2013-01-25 20:39:00,
2013-01-25 15:44:00,18.6,12.6,30.08,SSE,150,0.0,3.0,77,0.00,,,0.00,VWS V13.01,2013-01-25 20:44:00,
2013-01-25 15:49:00,18.4,12.7,30.08,SSE,150,0.0,3.0,78,0.00,,,0.00,VWS V13.01,2013-01-25 20:49:00,
2013-01-25 15:54:00,18.5,12.8,30.08,SSE,150,0.0,3.0,78,0.00,,,0.00,VWS V13.01,2013-01-25 20:54:00,
2013-01-25 15:59:00,18.6,12.9,30.08,SSE,150,0.0,3.0,78,0.00,,,0.00,VWS V13.01,2013-01-25 20:59:00,
2013-01-25 16:04:00,18.7,13.0,30.08,SSE,150,0.0,1.0,78,0.00,,OVC055,0.00,VWS V13.01,2013-01-25 21:04:00,
2013-01-25 16:09:00,18.7,13.0,30.08,SSE,150,0.0,1.0,78,0.00,,OVC055,0.00,VWS V13.01,2013-01-25 21:09:00,
2013-01-25 16:14:00,18.8,13.1,30.08,SSE,150,0.0,1.0,78,0.00,,OVC055,0.00,VWS V13.01,2013-01-25 21:14:00,
2013-01-25 16:20:00,18.8,13.1,30.07,SSE,150,0.0,1.0,78,0.00,,OVC055,0.00,VWS V13.01,2013-01-25 21:20:00,
2013-01-25 16:25:00,18.7,13.3,30.07,SSE,150,0.0,1.0,79,0.00,,OVC055,0.00,VWS V13.01,2013-01-25 21:25:00,
2013-01-25 16:30:00,18.6,13.2,30.06,SSE,150,0.0,0.0,79,0.00,,OVC055,0.00,VWS V13.01,2013-01-25 21:30:00,
2013-01-25 16:35:00,18.6,13.2,30.06,SSE,150,0.0,1.0,79,0.00,,OVC055,0.00,VWS V13.01,2013-01-25 21:35:00,
2013-01-25 16:40:00,18.5,13.1,30.06,SSE,150,0.0,1.0,79,0.00,,OVC055,0.00,VWS V13.01,2013-01-25 21:40:00,
2013-01-25 16:45:00,18.4,13.0,30.06,SSE,150,0.0,1.0,79,0.00,,OVC055,0.00,VWS V13.01,2013-01-25 21:45:00,
2013-01-25 16:50:00,18.2,12.8,30.05,SSE,150,0.0,1.0,79,0.00,,OVC055,0.00,VWS V13.01,2013-01-25 21:50:00,
2013-01-25 16:55:00,18.1,13.0,30.06,SSE,150,0.0,1.0,80,0.00,,OVC055,0.00,VWS V13.01,2013-01-25 21:55:00,
2013-01-25 17:00:00,18.0,12.9,30.06,SSE,150,1.0,1.0,80,0.00,,OVC055,0.00,VWS V13.01,2013-01-25 22:00:00,
2013-01-25 17:05:00,17.9,12.8,30.06,SSE,150,0.0,1.0,80,0.00,,OVC085,0.00,VWS V13.01,2013-01-25 22:05:00,
2013-01-25 17:10:00,17.8,12.7,30.06,SSE,150,0.0,1.0,80,0.00,,OVC085,0.00,VWS V13.01,2013-01-25 22:10:00,
2013-01-25 17:15:00,17.7,12.6,30.06,SSE,150,0.0,1.0,80,0.00,,OVC085,0.00,VWS V13.01,2013-01-25 22:15:00,
2013-01-25 17:20:00,17.6,12.5,30.06,SSE,150,0.0,1.0,80,0.00,,OVC085,0.00,VWS V13.01,2013-01-25 22:20:00,
2013-01-25 17:25:00,17.5,12.4,30.07,SSE,150,0.0,1.0,80,0.00,,OVC085,0.00,VWS V13.01,2013-01-25 22:25:00,
2013-01-25 17:30:00,17.5,12.7,30.07,SSE,150,0.0,0.0,81,0.00,,OVC085,0.00,VWS V13.01,2013-01-25 22:30:00,
2013-01-25 17:35:00,17.4,12.3,30.07,SSE,150,0.0,0.0,80,0.00,,OVC085,0.00,VWS V13.01,2013-01-25 22:35:00,
2013-01-25 17:40:00,17.4,12.6,30.08,SSE,150,0.0,0.0,81,0.00,,OVC085,0.00,VWS V13.01,2013-01-25 22:40:00,
2013-01-25 17:45:00,17.3,12.5,30.07,SSE,150,0.0,0.0,81,0.00,,OVC085,0.00,VWS V13.01,2013-01-25 22:45:00,
2013-01-25 17:50:00,17.3,12.5,30.07,SSE,150,0.0,0.0,81,0.00,,OVC085,0.00,VWS V13.01,2013-01-25 22:50:00,
2013-01-25 17:55:00,17.2,12.4,30.07,SSE,150,0.0,0.0,81,0.00,,OVC085,0.00,VWS V13.01,2013-01-25 22:55:00,
2013-01-25 18:00:00,17.1,12.3,30.07,SSE,150,0.0,0.0,81,0.00,,OVC085,0.00,VWS V13.01,2013-01-25 23:00:00,
2013-01-25 18:05:00,17.0,12.5,30.06,SSE,150,0.0,0.0,82,0.00,,OVC070,0.00,VWS V13.01,2013-01-25 23:05:00,
2013-01-25 18:10:00,17.0,12.5,30.06,SSE,150,0.0,0.0,82,0.00,,OVC070,0.00,VWS V13.01,2013-01-25 23:10:00,
2013-01-25 18:15:00,17.0,12.5,30.07,SSE,150,0.0,0.0,82,0.00,,OVC070,0.00,VWS V13.01,2013-01-25 23:15:00,
2013-01-25 18:20:00,16.9,12.4,30.07,SSE,150,0.0,0.0,82,0.00,,OVC070,0.00,VWS V13.01,2013-01-25 23:20:00,
2013-01-25 18:25:00,16.8,12.3,30.06,SSE,150,0.0,0.0,82,0.00,,OVC070,0.00,VWS V13.01,2013-01-25 23:25:00,
2013-01-25 18:30:00,16.8,12.5,30.06,SSE,150,0.0,0.0,83,0.00,,OVC070,0.00,VWS V13.01,2013-01-25 23:30:00,
2013-01-25 18:35:00,16.8,12.5,30.06,SSE,150,0.0,0.0,83,0.00,,OVC070,0.00,VWS V13.01,2013-01-25 23:35:00,
2013-01-25 18:40:00,16.7,12.4,30.06,SSE,150,0.0,0.0,83,0.00,,OVC070,0.00,VWS V13.01,2013-01-25 23:40:00,
2013-01-25 18:45:00,16.6,12.4,30.06,SSE,150,0.0,0.0,83,0.00,,OVC070,0.00,VWS V13.01,2013-01-25 23:45:00,
2013-01-25 18:50:00,16.6,12.4,30.07,SSE,150,0.0,0.0,83,0.00,,OVC070,0.00,VWS V13.01,2013-01-25 23:50:00,
2013-01-25 18:55:00,16.5,12.2,30.07,SSE,150,0.0,0.0,83,0.00,,OVC070,0.00,VWS V13.01,2013-01-25 23:55:00,
2013-01-25 19:00:00,16.5,12.2,30.06,SSE,150,0.0,0.0,83,0.00,,OVC070,0.00,VWS V13.01,2013-01-26 00:00:00,
2013-01-25 19:05:00,16.5,12.2,30.06,SSE,150,0.0,0.0,83,0.00,,OVC090,0.00,VWS V13.01,2013-01-26 00:05:00,
2013-01-25 19:10:00,16.5,12.2,30.07,SSE,150,0.0,0.0,83,0.00,,OVC090,0.00,VWS V13.01,2013-01-26 00:10:00,
2013-01-25 19:15:00,16.5,12.5,30.06,SSE,150,0.0,0.0,84,0.00,,OVC090,0.00,VWS V13.01,2013-01-26 00:15:00,
2013-01-25 19:20:00,16.5,12.5,30.06,SSE,150,0.0,0.0,84,0.00,,OVC090,0.00,VWS V13.01,2013-01-26 00:20:00,
2013-01-25 19:25:00,16.6,12.6,30.06,SSE,150,0.0,0.0,84,0.00,,OVC090,0.00,VWS V13.01,2013-01-26 00:25:00,
2013-01-25 19:30:00,16.6,12.6,30.07,SSE,150,0.0,0.0,84,0.00,,OVC090,0.00,VWS V13.01,2013-01-26 00:30:00,
2013-01-25 19:36:00,16.6,12.6,30.07,SSE,150,0.0,0.0,84,0.00,,OVC090,0.00,VWS V13.01,2013-01-26 00:36:00,
2013-01-25 19:41:00,16.5,12.5,30.07,SSE,150,0.0,0.0,84,0.00,,OVC090,0.00,VWS V13.01,2013-01-26 00:41:00,
2013-01-25 19:46:00,16.6,12.6,30.07,SSE,150,0.0,0.0,84,0.00,,OVC090,0.00,VWS V13.01,2013-01-26 00:46:00,
2013-01-25 19:51:00,16.5,12.5,30.07,SSE,150,0.0,0.0,84,0.00,,OVC090,0.00,VWS V13.01,2013-01-26 00:51:00,
2013-01-25 19:56:00,16.4,12.4,30.07,SSE,150,0.0,0.0,84,0.00,,OVC090,0.00,VWS V13.01,2013-01-26 00:56:00,
2013-01-25 20:01:00,16.4,12.4,30.07,SSE,150,0.0,0.0,84,0.00,,OVC080,0.00,VWS V13.01,2013-01-26 01:01:00,
2013-01-25 20:06:00,16.4,12.4,30.07,SSE,150,0.0,0.0,84,0.00,,OVC080,0.00,VWS V13.01,2013-01-26 01:06:00,
2013-01-25 20:11:00,16.4,12.4,30.07,SSE,150,0.0,0.0,84,0.00,,OVC080,0.00,VWS V13.01,2013-01-26 01:11:00,
2013-01-25 20:16:00,16.4,12.7,30.07,SSE,150,0.0,0.0,85,0.00,,OVC080,0.00,VWS V13.01,2013-01-26 01:16:00,
2013-01-25 20:21:00,16.4,12.7,30.07,SSE,150,0.0,0.0,85,0.00,,OVC080,0.00,VWS V13.01,2013-01-26 01:21:00,
2013-01-25 20:26:00,16.5,12.8,30.07,SSE,150,0.0,0.0,85,0.00,,OVC080,0.00,VWS V13.01,2013-01-26 01:26:00,
2013-01-25 20:31:00,16.5,12.8,30.07,SSE,150,0.0,0.0,85,0.00,,OVC080,0.00,VWS V13.01,2013-01-26 01:31:00,
2013-01-25 20:36:00,16.5,12.8,30.06,SSE,150,0.0,0.0,85,0.00,,OVC080,0.00,VWS V13.01,2013-01-26 01:36:00,
2013-01-25 20:41:00,16.5,12.8,30.06,SSE,150,0.0,0.0,85,0.00,,OVC080,0.00,VWS V13.01,2013-01-26 01:41:00,
2013-01-25 20:46:00,16.5,12.8,30.07,SSE,150,0.0,0.0,85,0.00,,OVC080,0.00,VWS V13.01,2013-01-26 01:46:00,
2013-01-25 20:51:00,16.5,12.8,30.07,SSE,150,0.0,0.0,85,0.00,,OVC080,0.00,VWS V13.01,2013-01-26 01:51:00,
2013-01-25 20:56:00,16.5,12.8,30.07,SSE,150,0.0,0.0,85,0.00,,OVC080,0.00,VWS V13.01,2013-01-26 01:56:00,
2013-01-25 21:01:00,16.5,12.8,30.07,SSE,150,0.0,0.0,85,0.00,,,0.00,VWS V13.01,2013-01-26 02:01:00,
2013-01-25 21:06:00,16.5,12.8,30.06,SSE,150,0.0,0.0,85,0.00,,,0.00,VWS V13.01,2013-01-26 02:06:00,
2013-01-25 21:11:00,16.5,12.8,30.06,SSE,150,0.0,0.0,85,0.00,,,0.00,VWS V13.01,2013-01-26 02:11:00,
2013-01-25 21:16:00,16.5,12.8,30.06,SSE,150,0.0,0.0,85,0.00,,,0.00,VWS V13.01,2013-01-26 02:16:00,
2013-01-25 21:21:00,16.4,12.9,30.06,SSE,150,0.0,0.0,86,0.00,,,0.00,VWS V13.01,2013-01-26 02:21:00,
2013-01-25 21:26:00,16.4,12.9,30.07,SSE,150,0.0,0.0,86,0.00,,,0.00,VWS V13.01,2013-01-26 02:26:00,
2013-01-25 21:31:00,16.5,13.1,30.07,SSE,150,0.0,0.0,86,0.00,,,0.00,VWS V13.01,2013-01-26 02:31:00,
2013-01-25 21:36:00,16.5,13.1,30.07,SSE,150,0.0,0.0,86,0.00,,,0.00,VWS V13.01,2013-01-26 02:36:00,
2013-01-25 21:41:00,16.6,13.1,30.07,SSE,150,0.0,0.0,86,0.00,,,0.00,VWS V13.01,2013-01-26 02:41:00,
2013-01-25 21:46:00,16.5,13.1,30.07,SSE,150,0.0,0.0,86,0.00,,,0.00,VWS V13.01,2013-01-26 02:46:00,
2013-01-25 21:51:00,16.5,13.1,30.07,SSE,150,0.0,0.0,86,0.00,,,0.00,VWS V13.01,2013-01-26 02:51:00,
2013-01-25 21:57:00,16.5,13.1,30.07,SSE,150,0.0,0.0,86,0.00,,,0.00,VWS V13.01,2013-01-26 02:57:00,
2013-01-25 22:02:00,16.5,13.1,30.07,SSE,150,0.0,0.0,86,0.00,,OVC075,0.00,VWS V13.01,2013-01-26 03:02:00,
2013-01-25 22:07:00,16.5,13.1,30.07,SSE,150,0.0,0.0,86,0.00,,OVC075,0.00,VWS V13.01,2013-01-26 03:07:00,
2013-01-25 22:12:00,16.5,13.1,30.07,SSE,150,0.0,0.0,86,0.00,,OVC075,0.00,VWS V13.01,2013-01-26 03:12:00,
2013-01-25 22:17:00,16.6,13.1,30.07,SSE,150,0.0,0.0,86,0.00,,OVC075,0.00,VWS V13.01,2013-01-26 03:17:00,
2013-01-25 22:22:00,16.6,13.1,30.07,SSE,150,0.0,1.0,86,0.00,,OVC075,0.00,VWS V13.01,2013-01-26 03:22:00,
2013-01-25 22:27:00,16.6,13.1,30.08,SSE,150,0.0,1.0,86,0.00,,OVC075,0.00,VWS V13.01,2013-01-26 03:27:00,
2013-01-25 22:32:00,16.6,13.1,30.08,SSE,150,0.0,0.0,86,0.00,,OVC075,0.00,VWS V13.01,2013-01-26 03:32:00,
2013-01-25 22:37:00,16.6,13.1,30.08,SSE,150,0.0,1.0,86,0.00,,OVC075,0.00,VWS V13.01,2013-01-26 03:37:00,
2013-01-25 22:42:00,16.6,13.1,30.08,SSE,150,0.0,2.0,86,0.00,,OVC075,0.00,VWS V13.01,2013-01-26 03:42:00,
2013-01-25 22:47:00,16.6,13.1,30.08,SSE,150,0.0,2.0,86,0.00,,OVC075,0.00,VWS V13.01,2013-01-26 03:47:00,
2013-01-25 22:52:00,16.6,13.1,30.08,SSE,150,0.0,2.0,86,0.00,,OVC075,0.00,VWS V13.01,2013-01-26 03:52:00,
2013-01-25 22:57:00,16.6,13.1,30.08,SSE,150,0.0,2.0,86,0.00,,OVC075,0.00,VWS V13.01,2013-01-26 03:57:00,
2013-01-25 23:02:00,16.6,13.1,30.08,SSE,150,0.0,0.0,86,0.00,,,0.00,VWS V13.01,2013-01-26 04:02:00,
2013-01-25 23:07:00,16.6,13.1,30.08,SSE,150,0.0,1.0,86,0.00,,,0.00,VWS V13.01,2013-01-26 04:07:00,
2013-01-25 23:12:00,16.6,13.1,30.09,SSE,150,0.0,1.0,86,0.00,,,0.00,VWS V13.01,2013-01-26 04:12:00,
2013-01-25 23:17:00,16.6,13.1,30.09,SSE,150,0.0,3.0,86,0.00,,,0.00,VWS V13.01,2013-01-26 04:17:00,
2013-01-25 23:22:00,16.6,13.1,30.09,SSE,150,2.0,3.0,86,0.00,,,0.00,VWS V13.01,2013-01-26 04:22:00,
2013-01-25 23:27:00,16.6,13.1,30.09,SSE,150,0.0,3.0,86,0.00,,,0.00,VWS V13.01,2013-01-26 04:27:00,
2013-01-25 23:32:00,16.7,13.2,30.09,SSE,150,0.0,1.0,86,0.00,,,0.00,VWS V13.01,2013-01-26 04:32:00,
2013-01-25 23:37:00,16.7,13.2,30.09,SSE,150,0.0,1.0,86,0.00,,,0.00,VWS V13.01,2013-01-26 04:37:00,
2013-01-25 23:42:00,16.7,13.2,30.09,SSE,155,0.0,3.0,86,0.00,,,0.00,VWS V13.01,2013-01-26 04:42:00,
2013-01-25 23:47:00,16.7,13.2,30.09,SSE,156,0.0,3.0,86,0.00,,,0.00,VWS V13.01,2013-01-26 04:47:00,
2013-01-25 23:52:00,16.8,13.4,30.09,SSE,156,0.0,3.0,86,0.00,,,0.00,VWS V13.01,2013-01-26 04:52:00,
2013-01-25 23:57:00,16.8,13.6,30.09,SSE,161,0.0,3.0,87,0.00,,,0.00,VWS V13.01,2013-01-26 04:57:00,